Regional Weather Roundup
Issued by NWS

Home | Current Version | Previous Version | Graphics & Text | Print | Product List | Glossary On
Versions: 1 2 3 4 5 6 7 8 9 10 11 12 13 14 15 16 17 18 19 20 21 22 23 24 25 26 27 28 29 30 31 32 33 34 35 36 37 38 39 40 41 42 43 44 45 46 47 48 49 50
000
ASUS43 KMPX 290001
RWRMN
WEATHER ROUNDUP FOR MINNESOTA
NATIONAL WEATHER SERVICE TWIN CITIES/CHANHASSEN MN
700 PM CDT THU AUG 28 2014


NOTE: "FAIR" INDICATES FEW OR NO CLOUDS BELOW 12,000 FEET WITH NO
SIGNIFICANT WEATHER AND/OR OBSTRUCTIONS TO VISIBILITY. N/A MEANS
CURRENT SKY AND/OR WEATHER CONDITIONS ARE NOT AVAILABLE.

MNZ060>063-068>070-290100-
   Twin Cities Metro

CITY           SKY/WX    TMP DP  RH WIND       PRES   REMARKS
TWIN CITIES    CLOUDY    68  65  90 E14       29.95F
6HR MIN TEMP:  67; 6HR MAX TEMP:  72; 6HR PCP:  0.02;

ST PAUL        CLOUDY    68  63  84 SE13      29.96F
CRYSTAL        CLOUDY    70  63  78 E13       29.93F
BLAINE         CLOUDY    70  66  88 SE9       29.96F
LAKEVILLE      DRIZZLE   64  63  94 E8        29.96S
EDEN PRAIRIE   CLOUDY    69  64  84 SE16G22   29.94S
6HR MIN TEMP:  66; 6HR MAX TEMP:  71; 6HR PCP:  0.02;

SOUTH ST PAUL  CLOUDY    68  63  85 SE8       29.96S
LAKE ELMO      CLOUDY    68  63  83 E7        29.98F
$$
MNZ001>005-007-008-013>017-022>024-027-028-290100-
   Northwest Minnesota

CITY           SKY/WX    TMP DP  RH WIND       PRES   REMARKS
BEMIDJI        CLOUDY    69  61  77 S8        29.93S
HALLOCK        PTSUNNY   73  66  78 S18       29.83F
ROSEAU         PTSUNNY   72  64  78 S13       29.88F
WARROAD        PTSUNNY   70  64  83 S9        29.89F
THIEF RVR FALL CLOUDY    70  64  83 S8        29.89F
CROOKSTON      CLOUDY    72  64  78 S9        29.89S
FOSSTON        CLOUDY    68  61  77 S9        29.92S
DETROIT LAKES  DRIZZLE   68  61  77 SE10      29.94S
MOORHEAD       CLOUDY    68  66  94 SE7       29.90F
PARK RAPIDS    CLOUDY    67  62  84 SE5       29.94F
MAHNOMEN       FAIR      68  62  79 S7        29.91F
$$
MNZ006-009>011-018-025>026-290100-
   North Central Minnesota

CITY           SKY/WX    TMP DP  RH WIND       PRES   REMARKS
BAUDETTE       CLOUDY    68  61  78 S6        29.91F
FLAG ISLAND    CLOUDY    70  64  83 S12       29.87F
INTL FALLS     CLOUDY    68  60  75 CALM      29.94F
6HR MIN TEMP:  68; 6HR MAX TEMP:  73; 6HR PCP: TRACE;

WASKISH        CLOUDY    68  63  83 CALM      29.93S
BIG FORK       CLOUDY    66  63  88 CALM      29.96F
LONGVILLE      CLOUDY    66  63  88 CALM      29.96S
GRAND RAPIDS   CLOUDY    66  57  72 SE5       29.97S
CRANE LAKE     CLOUDY    66  59  77 CALM      29.97S
ORR            CLOUDY    64  57  77 CALM      29.94F
COOK           CLOUDY    68  57  68 CALM      29.97F
WALKER         MOCLDY    67  61  79 SE7       29.94F
$$
MNZ012-019>021-037-290100-
   Northeast Minnesota

CITY           SKY/WX    TMP DP  RH WIND       PRES   REMARKS
DULUTH         CLOUDY    64  54  69 E9        30.00F
6HR MIN TEMP:  64; 6HR MAX TEMP:  72;

ELY            CLOUDY    66  54  63 SE7       29.99F
HIBBING        CLOUDY    69  58  67 S6        29.98S
EVELETH        CLOUDY    66  55  68 SE5       30.00S
DULUTH HARBOR  CLOUDY    64  59  82 NE9       30.00S
TWO HARBORS    CLOUDY    63  52  67 E8        29.99F
SILVER BAY     CLOUDY    61  55  82 NE7       30.00F
GRAND MARAIS     N/A     62  55  77 CALM      30.02F
G MARAIS ARPRT MOCLDY    61  52  72 CALM      30.05F
$$
MNZ029>031-032-039>041-046>048-054>057-064-290100-
   West Central Minnesota

CITY           SKY/WX    TMP DP  RH WIND       PRES   REMARKS
FERGUS FALLS   DRIZZLE   66  64  94 SE8       29.91S
WHEATON        CLOUDY    64  63  94 E8        29.91F
MORRIS         DRIZZLE   66  64  94 E7        29.89F
ALEXANDRIA     LGT RAIN  65  63  93 SE9       29.94F FOG
ELBOW LAKE     CLOUDY    65  63  93 SE7       29.90F
WADENA         DRIZZLE   64  63  94 E6        29.94S
GLENWOOD       RAIN      64  63  94 E9        29.93F
APPLETON       CLOUDY    66  64  94 E8        29.88F
BENSON         DRIZZLE   64  64 100 SE8       29.90F
ORTONVILLE     DRIZZLE   64  63  94 SE9       29.88F
MADISON        PTSUNNY   70  66  88 E8        29.88F FOG
WILLMAR        PTSUNNY   66  64  94 E9        29.92F FOG
$$
MNZ033>034-036-042>043-049>051-058-059-290100-
   Central Minnesota

CITY           SKY/WX    TMP DP  RH WIND       PRES   REMARKS
ST CLOUD       LGT RAIN  68  64  87 E6        29.94F
6HR MIN TEMP:  68; 6HR MAX TEMP:  76; 6HR PCP:  0.02;

SAUK CENTRE    RAIN      64  63  97 E8        29.94F
PAYNESVILLE    LGT RAIN  62  62  99 NE9       29.93F
AITKIN         CLOUDY    72  63  73 CALM      29.96R
PINE RIVER     LGT RAIN  66  63  88 SE5       29.99S
BRAINERD       LGT RAIN  67  62  84 SE6       29.96S
STAPLES        DRIZZLE   64  63  94 SE3       29.95S
LONG PRAIRIE   RAIN      63  63 100 E7        29.95F
LITTLE FALLS   RAIN      64  63  94 E3        29.95F
LITCHFIELD     CLOUDY    68  66  94 E9        29.93F
BUFFALO        CLOUDY    67  63  85 E6        29.95F
MAPLE LAKE     CLOUDY    68  65  90 E6        29.95F
$$
MNZ037-044-045-052-053-290100-
   East Central Minnesota

CITY           SKY/WX    TMP DP  RH WIND       PRES   REMARKS
PRINCETON      CLOUDY    66  64  94 E5        29.96F
MORA           RAIN      64  61  88 CALM      29.99F
CAMBRIDGE      RAIN      68  59  73 E3        29.95F
RUSH CITY      CLOUDY    68  62  83 CALM      29.98S
MOOSE LAKE     CLOUDY    68  59  73 SE3       29.96F
HINCKLEY       RAIN      68  63  83 CALM      29.98F
CLOQUET        CLOUDY    63  54  72 E6        30.00S
MCGREGOR       CLOUDY    68  61  77 SE5       29.98S
$$
MNZ071>073-080-081-089-090-097-098-290100-
   Southwest Minnesota

CITY           SKY/WX    TMP DP  RH WIND       PRES   REMARKS
MONTEVIDEO     CLOUDY    66  66 100 SE10      29.89F
GRANITE FALLS  CLOUDY    66  66  97 E8        29.90F FOG
CANBY          CLOUDY    67  66  97 E6        29.88F FOG
MARSHALL       CLOUDY    70  64  83 E10       29.87F
REDWOOD FALLS  CLOUDY    68  67  96 E6        29.89F FOG
OLIVIA         CLOUDY    68  64  88 E9        29.90S FOG
PIPESTONE      CLOUDY    70  66  88 SE6       29.87F
WINDOM         DRIZZLE   68  66  94 E9        29.90F
WORTHINGTON    CLOUDY    68  66  94 E9        29.89F
JACKSON        CLOUDY    68  64  88 E8        29.90F FOG
TRACY          CLOUDY    70  68  94 E7        29.89S
SLAYTON        CLOUDY    68  67  98 CALM      29.89F
$$
MNZ065>067-074>077-082>085-091>093-290100-
   South Central Minnesota

CITY           SKY/WX    TMP DP  RH WIND       PRES   REMARKS
MANKATO        CLOUDY    66  63  88 E9        29.92F
NEW ULM        MOCLDY    68  66  94 E9        29.91S
ST JAMES       CLOUDY    70  66  88 E8        29.91F
FAIRMONT       CLOUDY    64  61  88 E7        29.91S
GLENCOE        CLOUDY    69  63  81 E12G17    29.92F
FARIBAULT      RAIN      66  63  88 E6        29.95F
OWATONNA       DRIZZLE   66  63  88 E9        29.94F
WASECA         CLOUDY    63  59  88 E9        29.95F
ALBERT LEA     LGT RAIN  64  64 100 NE7       29.94S
$$
MNZ078>079-086>088-094>096-290100-
   Southeast Minnesota

CITY           SKY/WX    TMP DP  RH WIND       PRES   REMARKS
ROCHESTER      RAIN      65  63  93 SE13      29.97S FOG
6HR MIN TEMP:  64; 6HR MAX TEMP:  66; 6HR PCP:  0.88;

RED WING       LGT RAIN  66  64  94 E8        29.96F
STANTON        RAIN      66  63  91 E8        29.95S
DODGE CENTER   DRIZZLE   64  64 100 E7        29.96F
WINONA         HVY RAIN  68  66  94 SE8       29.97F
AUSTIN         RAIN      64  64 100 CALM      29.94F
PRESTON        HVY RAIN  64  64 100 CALM      29.98F
$$
ABBREVIATIONS USED IN REMARKS
   TC - TEMPERATURES IN CELSIUS
  WCI - WIND CHILL INDEX
   HX - HEAT INDEX
  VSB - VISIBILITY
$$


USA.gov is the U.S. government's official web portal to all federal, state and local government web resources and services.